Bookmark and Share
Track history (hours):
 

Currituck

Last reported at 2014-Apr-18 16:17 UTC. Time now 2014-Apr-20 03:25 UTC.
Position N 39°32' W 074°08'.

Length 45 m; draft 3 m.

Type: Dredging. MMSI: 369970446.

NotesDate/timePositionNaut miles runAvg speedWind from/ knotsBaromVisibWave heightAir tempDewpointWater temp
2014-Apr-18 16:17N 39°32' W 074°08'6 7.7
2014-Apr-18 15:32N 39°37' W 074°05'8 7.7
2014-Apr-18 14:33N 39°44' W 074°01'8 7.6
2014-Apr-18 13:31N 39°51' W 073°59'  
2014-Apr-15 03:34N 40°38' W 074°03'1010.0
2014-Apr-15 02:31N 40°47' W 073°56'15 7.6
2014-Apr-15 00:33N 40°55' W 073°39'7 6.9
2014-Apr-14 23:33N 40°59' W 073°32'3 2.8
2014-Apr-14 22:33N 41°02' W 073°33'2 2.2
2014-Apr-14 21:34N 41°00' W 073°31'7 6.8
2014-Apr-14 20:33N 41°01' W 073°22'6 6.5
2014-Apr-14 19:34N 41°04' W 073°14'7 6.9
2014-Apr-14 18:34N 41°06' W 073°05'7 6.6
2014-Apr-14 17:33N 41°07' W 072°57'6 6.4
2014-Apr-14 16:34N 41°08' W 072°49'7 6.6
2014-Apr-14 15:32N 41°10' W 072°40'6 6.6
2014-Apr-14 14:34N 41°11' W 072°31'8 7.7
2014-Apr-14 13:34N 41°13' W 072°21'14 7.1
2014-Apr-14 11:34N 41°20' W 072°05'2 1.6
2014-Apr-14 10:34N 41°21' W 072°05'6 6.4
2014-Apr-14 09:34N 41°15' W 072°04'7 6.9
2014-Apr-14 08:34N 41°15' W 071°54'7 7.4
2014-Apr-14 07:33N 41°16' W 071°45'7 7.1
2014-Apr-14 06:33N 41°17' W 071°35'7 6.9
2014-Apr-14 05:33N 41°18' W 071°26'  
2014-Apr-10 07:33N 42°58' W 070°40'9 9.3
2014-Apr-10 06:33N 42°50' W 070°46'5 4.7
2014-Apr-10 05:32N 42°49' W 070°52'0 0.0
2014-Apr-10 04:33N 42°49' W 070°52'0 0.0
2014-Apr-10 03:33N 42°49' W 070°52'0 0.0
2014-Apr-10 02:33N 42°49' W 070°52'0 0.0
2014-Apr-10 01:33N 42°49' W 070°52'0 0.0
2014-Apr-10 00:31N 42°49' W 070°52'0 0.0
2014-Apr-09 23:33N 42°49' W 070°52'0 0.0
2014-Apr-09 22:33N 42°49' W 070°52'0 0.0
2014-Apr-09 21:33N 42°49' W 070°52'4 4.4
2014-Apr-09 20:33N 42°48' W 070°46'7 6.7
2014-Apr-09 19:33N 42°45' W 070°38'11 5.0
2014-Apr-09 17:18N 42°34' W 070°40'1 0.2
2014-Apr-09 11:33N 42°35' W 070°40'63 4.1
2014-Apr-08 20:13N 41°39' W 069°60'0 0.1
2014-Apr-08 19:30N 41°39' W 069°60'0 0.1
2014-Apr-08 18:26N 41°39' W 069°60'0 0.1
2014-Apr-08 17:31N 41°39' W 069°60'  

Dump ship's entire track history

sailing weather and tide predictions

Currituck — AEFR — position and weather